When you browse on this site, cookies collect data to enhance your experience and personalize the content and advertising you see.
Visit our Privacy Policy to learn more. By continuing to use the site, you agree to this use of cookies and data.
  • In Hungary
  • List of Countries
  • For 7 days
  • Water Temperature
  • Weather Map
  • News
  • Weather Widgets
  • user-avatar
    Login

    Hourly Weather Roma

    Today, 9 December, Monday

    Time Temperature Precipitation Wind Pressure Humidity
    00:00 +19°C° 0.8 mm 1 mps 622 mmHg 79%
    01:00 +18°C° 0.8 mm 1 mps 622 mmHg 80%
    02:00 +17°C° 0 mm 2 mps 622 mmHg 81%
    03:00 +17°C° 0.4 mm 2 mps 622 mmHg 82%
    04:00 +16°C° 0.4 mm 2 mps 622 mmHg 83%
    05:00 +16°C° 0.4 mm 2 mps 622 mmHg 84%
    06:00 +17°C° 0.1 mm 2 mps 622 mmHg 79%
    07:00 +18°C° 0.1 mm 2 mps 623 mmHg 74%
    08:00 +19°C° 0 mm 2 mps 624 mmHg 65%
    09:00 +21°C° 0.2 mm 2 mps 624 mmHg 59%
    10:00 +22°C° 0.2 mm 3 mps 624 mmHg 54%
    11:00 +24°C° 0.2 mm 3 mps 624 mmHg 48%
    12:00 +23°C° 0.7 mm 4 mps 624 mmHg 50%
    13:00 +23°C° 0.7 mm 4 mps 624 mmHg 52%
    14:00 +23°C° 0.7 mm 5 mps 623 mmHg 53%
    15:00 +21°C° 1.1 mm 4 mps 622 mmHg 61%
    16:00 +20°C° 1.1 mm 3 mps 622 mmHg 69%
    17:00 +18°C° 1.1 mm 2 mps 621 mmHg 76%
    18:00 +18°C° 1.7 mm 2 mps 621 mmHg 79%
    19:00 +18°C° 1.7 mm 2 mps 622 mmHg 81%
    20:00 +17°C° 1.7 mm 2 mps 622 mmHg 83%
    21:00 +17°C° 0.8 mm 2 mps 623 mmHg 83%
    22:00 +17°C° 0.8 mm 2 mps 623 mmHg 83%
    23:00 +17°C° 0.8 mm 2 mps 623 mmHg 83%

    Tomorrow, 10 December, Tuesday

    Time Temperature Precipitation Wind Pressure Humidity
    00:00 +16°C° 0.6 mm 2 mps 623 mmHg 85%
    01:00 +16°C° 0.6 mm 2 mps 623 mmHg 86%
    02:00 +15°C° 0.6 mm 1 mps 622 mmHg 88%
    03:00 +15°C° 1.3 mm 1 mps 622 mmHg 89%
    04:00 +15°C° 1.3 mm 1 mps 622 mmHg 89%
    05:00 +15°C° 1.3 mm 1 mps 622 mmHg 90%
    06:00 +15°C° 0.8 mm 2 mps 622 mmHg 87%
    07:00 +16°C° 0.8 mm 2 mps 623 mmHg 85%
    08:00 +17°C° 0.8 mm 3 mps 623 mmHg 82%
    09:00 +17°C° 0.6 mm 4 mps 623 mmHg 82%
    10:00 +17°C° 0.6 mm 4 mps 623 mmHg 83%
    11:00 +16°C° 0.6 mm 5 mps 622 mmHg 83%
    12:00 +16°C° 0.4 mm 5 mps 622 mmHg 82%
    13:00 +16°C° 0.4 mm 5 mps 622 mmHg 80%
    14:00 +17°C° 0.4 mm 6 mps 622 mmHg 79%
    15:00 +17°C° 0.5 mm 5 mps 621 mmHg 76%
    16:00 +17°C° 0.5 mm 5 mps 621 mmHg 73%
    17:00 +18°C° 0.5 mm 4 mps 621 mmHg 70%
    18:00 +17°C° 0.5 mm 4 mps 621 mmHg 74%
    19:00 +15°C° 0.5 mm 4 mps 621 mmHg 79%
    20:00 +16°C° 0.5 mm 3 mps 621 mmHg 83%
    21:00 +14°C° 1 mm 3 mps 622 mmHg 85%
    22:00 +15°C° 1 mm 2 mps 622 mmHg 87%
    23:00 +15°C° 1 mm 2 mps 622 mmHg 89%

    Day after tomorrow, 11 December, Wednesday

    Time Temperature Precipitation Wind Pressure Humidity
    00:00 +14°C° 0.1 mm 2 mps 621 mmHg 90%
    01:00 +14°C° 0.1 mm 1 mps 621 mmHg 91%
    02:00 +13°C° 0.1 mm 1 mps 620 mmHg 92%
    03:00 +13°C° 0 mm 1 mps 620 mmHg 91%
    04:00 +13°C° 0 mm 1 mps 620 mmHg 91%
    05:00 +13°C° 0 mm 1 mps 621 mmHg 91%
    06:00 +14°C° 0 mm 1 mps 621 mmHg 86%
    07:00 +16°C° 0 mm 1 mps 622 mmHg 81%
    08:00 +18°C° 0 mm 1 mps 623 mmHg 76%
    09:00 +18°C° 0.1 mm 2 mps 623 mmHg 70%
    10:00 +19°C° 0.1 mm 2 mps 623 mmHg 63%
    11:00 +21°C° 0.1 mm 3 mps 623 mmHg 57%
    12:00 +22°C° 0 mm 4 mps 623 mmHg 50%
    13:00 +23°C° 0 mm 5 mps 623 mmHg 43%
    14:00 +25°C° 0 mm 5 mps 623 mmHg 36%
    15:00 +25°C° 0 mm 5 mps 623 mmHg 36%
    16:00 +25°C° 0 mm 5 mps 623 mmHg 37%
    17:00 +25°C° 0 mm 5 mps 623 mmHg 37%
    18:00 +22°C° 0 mm 4 mps 623 mmHg 42%
    19:00 +20°C° 0 mm 3 mps 623 mmHg 47%
    20:00 +19°C° 0 mm 1 mps 623 mmHg 52%
    21:00 +19°C° 0 mm 1 mps 623 mmHg 54%
    22:00 +18°C° 0 mm 1 mps 623 mmHg 56%
    23:00 +18°C° 0 mm 1 mps 624 mmHg 57%

    12 December, Thursday

    Time Temperature Precipitation Wind Pressure Humidity
    00:00 +16°C° 0 mm 1 mps 623 mmHg 60%
    01:00 +16°C° 0 mm 1 mps 623 mmHg 62%
    02:00 +15°C° 0 mm 1 mps 623 mmHg 65%
    03:00 +15°C° 0 mm 1 mps 623 mmHg 66%
    04:00 +14°C° 0 mm 1 mps 623 mmHg 67%
    05:00 +14°C° 0 mm 1 mps 623 mmHg 68%
    06:00 +16°C° 0 mm 1 mps 623 mmHg 63%
    07:00 +18°C° 0 mm 2 mps 624 mmHg 57%
    08:00 +20°C° 0 mm 2 mps 625 mmHg 52%
    09:00 +21°C° 0.1 mm 2 mps 625 mmHg 48%
    10:00 +22°C° 0.1 mm 3 mps 625 mmHg 43%
    11:00 +25°C° 0.1 mm 3 mps 626 mmHg 39%
    12:00 +25°C° 0 mm 3 mps 625 mmHg 37%
    13:00 +26°C° 0 mm 3 mps 625 mmHg 35%
    14:00 +26°C° 0 mm 4 mps 625 mmHg 32%
    15:00 +25°C° 0.1 mm 4 mps 625 mmHg 35%
    16:00 +25°C° 0.1 mm 4 mps 624 mmHg 38%
    17:00 +23°C° 0.1 mm 5 mps 624 mmHg 41%
    18:00 +21°C° 0.4 mm 4 mps 624 mmHg 51%
    19:00 +19°C° 0.4 mm 4 mps 624 mmHg 60%
    20:00 +17°C° 0.4 mm 4 mps 623 mmHg 70%
    21:00 +17°C° 0 mm 3 mps 623 mmHg 70%
    22:00 +16°C° 0 mm 2 mps 624 mmHg 71%
    23:00 +16°C° 0 mm 2 mps 624 mmHg 71%

    13 December, Friday

    Time Temperature Precipitation Wind Pressure Humidity
    00:00 +16°C° 0.2 mm 1 mps 623 mmHg 73%
    01:00 +15°C° 0.2 mm 1 mps 623 mmHg 75%
    02:00 +15°C° 0.2 mm 1 mps 623 mmHg 77%
    03:00 +15°C° 0.3 mm 1 mps 623 mmHg 77%
    04:00 +15°C° 0.3 mm 1 mps 623 mmHg 77%
    05:00 +15°C° 0.3 mm 1 mps 623 mmHg 77%
    06:00 +16°C° 0 mm 3 mps 624 mmHg 72%
    07:00 +17°C° 0 mm 6 mps 624 mmHg 68%
    08:00 +18°C° 0 mm 8 mps 625 mmHg 63%
    09:00 +21°C° 0.1 mm 8 mps 625 mmHg 60%
    10:00 +22°C° 0.1 mm 8 mps 625 mmHg 57%
    11:00 +23°C° 0.1 mm 9 mps 625 mmHg 53%
    12:00 +24°C° 0.6 mm 8 mps 624 mmHg 52%
    13:00 +24°C° 0.6 mm 7 mps 624 mmHg 50%
    14:00 +24°C° 0.6 mm 6 mps 623 mmHg 49%
    15:00 +26°C° 0.2 mm 6 mps 623 mmHg 46%
    16:00 +26°C° 0.2 mm 5 mps 623 mmHg 43%
    17:00 +27°C° 0.2 mm 5 mps 622 mmHg 40%
    18:00 +25°C° 0 mm 4 mps 622 mmHg 42%
    19:00 +23°C° 0 mm 4 mps 622 mmHg 44%
    20:00 +22°C° 0 mm 3 mps 622 mmHg 46%
    21:00 +21°C° 0 mm 3 mps 623 mmHg 53%
    22:00 +20°C° 0 mm 3 mps 623 mmHg 59%
    23:00 +19°C° 0 mm 3 mps 623 mmHg 66%

    14 December, Saturday

    Time Temperature Precipitation Wind Pressure Humidity
    00:00 +18°C° 0 mm 3 mps 622 mmHg 70%
    01:00 +18°C° 0 mm 3 mps 622 mmHg 73%
    02:00 +17°C° 0 mm 3 mps 621 mmHg 77%
    03:00 +16°C° 0 mm 2 mps 621 mmHg 78%
    04:00 +16°C° 0 mm 2 mps 621 mmHg 80%
    05:00 +16°C° 0 mm 2 mps 621 mmHg 81%
    06:00 +18°C° 0 mm 3 mps 622 mmHg 73%
    07:00 +19°C° 0 mm 3 mps 622 mmHg 64%
    08:00 +21°C° 0 mm 4 mps 623 mmHg 55%
    09:00 +23°C° 0 mm 5 mps 623 mmHg 46%
    10:00 +26°C° 0 mm 6 mps 624 mmHg 37%
    11:00 +28°C° 0 mm 7 mps 624 mmHg 28%
    12:00 +29°C° 0 mm 8 mps 624 mmHg 26%
    13:00 +31°C° 0 mm 9 mps 624 mmHg 23%
    14:00 +32°C° 0 mm 10 mps 624 mmHg 20%
    15:00 +31°C° 0 mm 10 mps 624 mmHg 20%
    16:00 +31°C° 0 mm 9 mps 623 mmHg 20%
    17:00 +29°C° 0 mm 9 mps 623 mmHg 21%
    18:00 +27°C° 0 mm 8 mps 622 mmHg 23%
    19:00 +24°C° 0 mm 6 mps 622 mmHg 25%
    20:00 +22°C° 0 mm 4 mps 622 mmHg 27%
    21:00 +21°C° 0 mm 4 mps 622 mmHg 29%
    22:00 +20°C° 0 mm 3 mps 622 mmHg 30%
    23:00 +19°C° 0 mm 3 mps 622 mmHg 32%
    Show more